GALAXY 35 (G-35)

Last updated on Sat Aug 15 2026 00:03:03 GMT+0000 (Coordinated Universal Time)

1 54741U 22170A 26226.54950933 -.00000178 00000+0 00000+0 0 9994 2 54741 0.0108 114.8726 0002033 33.9022 278.9103 1.00272284 13479
UTC large
Height (km)
Speed (km/s)
/
Latitude / Longitude
Inclination (degrees)
Orbital Period (minutes)
Azimuth
Elevation
Range (km)
Doppler Factor

Next 0 passes for location: London (51.5072 / 0.1276)

No passes found over London.
GALAXY 35 (G-35)